TimePDT,TemperatureF,Dew PointF,Humidity,Sea Level PressureIn,VisibilityMPH,Wind Direction,Wind SpeedMPH,Gust SpeedMPH,PrecipitationIn,Events,Conditions,WindDirDegrees,DateUTC
12:56 AM,73.0,51.1,46,29.90,10.0,Calm,Calm,-,N/A,,Clear,0,2013-07-25 07:56:00
1:56 AM,69.1,53.1,57,29.90,10.0,Calm,Calm,-,N/A,,Clear,0,2013-07-25 08:56:00
2:56 AM,68.0,54.0,61,29.90,10.0,Calm,Calm,-,N/A,,Clear,0,2013-07-25 09:56:00
3:56 AM,69.1,52.0,54,29.90,10.0,Calm,Calm,-,N/A,,Clear,0,2013-07-25 10:56:00
4:56 AM,66.9,53.1,61,29.90,10.0,Calm,Calm,-,N/A,,Clear,0,2013-07-25 11:56:00
5:56 AM,64.0,54.0,70,29.91,10.0,Calm,Calm,-,N/A,,Clear,0,2013-07-25 12:56:00
6:56 AM,66.0,53.1,63,29.92,10.0,Calm,Calm,-,N/A,,Clear,0,2013-07-25 13:56:00
7:56 AM,70.0,54.0,57,29.93,10.0,Calm,Calm,-,N/A,,Clear,0,2013-07-25 14:56:00
8:56 AM,75.0,55.0,50,29.94,10.0,Calm,Calm,-,N/A,,Clear,0,2013-07-25 15:56:00
9:56 AM,81.0,54.0,39,29.93,10.0,Variable,3.5,-,N/A,,Clear,0,2013-07-25 16:56:00
10:56 AM,88.0,55.9,34,29.92,10.0,Calm,Calm,-,N/A,,Clear,0,2013-07-25 17:56:00
11:56 AM,91.9,55.0,29,29.91,10.0,Calm,Calm,-,N/A,,Clear,0,2013-07-25 18:56:00
12:56 PM,100.0,52.0,20,29.89,10.0,East,5.8,-,N/A,,Clear,90,2013-07-25 19:56:00
1:56 PM,102.9,48.9,16,29.87,10.0,North,12.7,-,N/A,,Clear,350,2013-07-25 20:56:00
2:56 PM,102.0,48.0,16,29.87,10.0,WSW,8.1,-,N/A,,Clear,250,2013-07-25 21:56:00
3:56 PM,102.0,45.0,14,29.86,10.0,WSW,11.5,17.3,N/A,,Clear,250,2013-07-25 22:56:00
4:56 PM,100.9,44.1,14,29.86,10.0,WSW,8.1,-,N/A,,Clear,240,2013-07-25 23:56:00
5:56 PM,98.1,42.1,15,29.87,10.0,Variable,5.8,-,N/A,,Clear,0,2013-07-26 00:56:00
6:56 PM,93.9,35.1,13,29.89,10.0,NNW,10.4,-,N/A,,Clear,340,2013-07-26 01:56:00
7:56 PM,87.1,44.1,22,29.92,10.0,NNW,6.9,-,N/A,,Clear,330,2013-07-26 02:56:00
8:56 PM,82.9,42.1,24,29.94,10.0,Variable,3.5,-,N/A,,Clear,0,2013-07-26 03:56:00
9:56 PM,80.1,44.1,28,29.96,10.0,Calm,Calm,-,N/A,,Clear,0,2013-07-26 04:56:00
10:56 PM,73.9,51.1,45,29.97,10.0,Calm,Calm,-,N/A,,Clear,0,2013-07-26 05:56:00
11:56 PM,72.0,50.0,46,29.97,10.0,Calm,Calm,-,N/A,,Clear,0,2013-07-26 06:56:00